"Pseudo-MPEC" for P10Ll0F

Created 2019 Jan 12 1:18:37 UT using Find_Orb

Click here for an explanation of pseudo-MPECs

 
 Astrometry: 
     P10Ll0F  C2019 01 09E!H0pAstrometryYRWAkhk?165@\m?xEXU+#.T-UKq%*I]KoK=4LF51
     P10Ll0F  C2019 01 099Q%Ka1OI?QVtMS,P62EO4B4^l.7rGiRM*=S\-cVdj/J@\feT8khvF51
     P10Ll0F  C2019 01 09$aYZ:;B#K,G5Vg5m-+2aC$)s3-eCC%redacted;$srFPC,wXeG/rF51
     P10Ll0F  C2019 01 09#pQdPp)s9bPq\Hq2E#0$tO%]!2Y5o3-r)87Z.t-!\]M_D++ocvDhF51
     P10Ll0F  C2019 01 10vPd4gxva+wxCJp(Iclick!3KJP!HshH'[7+3\GI$Cectc,E3iH5VF51
     P10Ll0F  C2019 01 100-RG9n4uN[x,X=oRZVQnES]!vb.^h%HPWIi%]Srp_PhT]Hdh/ByeF51
     P10Ll0F  C2019 01 10\7Fm`irDaK10hereGy^H]lH1KH_\\/MUe4x]X_bNprOpjgrMn6tpF51
     P10Ll0F  C2019 01 10m-O@b:T`wfy_op1x@Vf8]ZN1*7qLmo)`#Y[?M5KVYd%)P#I,i;i#F51
     P10Ll0F pC2019 01 11NAqiDPJ$9x)oWmtaCRd)AMEJ(-+TAYO8HNforCLl!fj*5GQdbOM2L01
     P10Ll0F pC2019 01 11i.udA%WDSpy!\i_rjj\SsxZ`5gErjg;RZMu7qN7hMl$p+vaO2n#0L01
     P10Ll0F pC2019 01 119)AE!rulj$explanation]2QO64g=yeAdm^dbFj!P1FPgrKYO=N[L01

Station data:
(F51) Pan-STARRS 1, Haleakala  (N20.707235 W156.255910)  US/Hawaii.
   Observers N. Primak, A. Schultz, S. Watters, J. Thiel, T. Goggia. Measurer
   PS1 Science Consortium. 1.8-m Ritchey-Chrétien + CCD.
(L01) Višnjan Observatory, Tičan  (N45.290900 E13.749300)  Croatia.
   Observers K. Korlević, E. Pettarin. Measurer E. Pettarin. 1.0-m f/2.9
   reflector + CCD.

Orbital elements:  P10Ll0F
   Perihelion 2019 Mar 4.165082 +/- 26.8 TT =  3:57:43 (JD 2458546.665082)
Epoch 2019 Jan 11.0 TT = JDT 2458494.5   Earth MOID: 0.4487   AutoNEOCP
M 332.60660568 +/- 12               (J2000 ecliptic)
n   0.52512894 +/- 0.0383           Peri.  208.62608 +/- 15
a   1.52157049 +/- 0.074            Node   294.86506 +/- 0.048
e   0.0634857 +/- 0.0121            Incl.   16.66908 +/- 2.5
P   1.88/685.53d           H 21.8   G  0.15   U 10.6  
q 1.42497250 +/- 0.0495    Q 1.61816848 +/- 0.0939
From 11 observations 2019 Jan. 9-11; mean residual 0".26
Residuals in arcseconds: 
190109 F51  .13-  .10+    190110 F51  .09+  .20-    190111 L01  .04+  .11-    
190109 F51  .14-  .06+    190110 F51  .16+  .03-    190111 L01  .72-  .56+    
190109 F51  .01+  .09+    190110 F51  .14+  .30-    190111 L01  .55+  .31-    
190109 F51  .02-  .08+    190110 F51  .09+  .03-    

Ephemerides (geocentric):
Date (UTC) HH   RA              Dec         delta   r     elong  mag " sig PA
---- -- -- --  -------------   -----------  ------ ------ -----  --- ---- ---
2019 01 12 01  07 59 00.255   +22 15 05.22  .45517 1.4367 173.7 21.2 2.59 134
2019 01 12 02  07 58 54.760   +22 13 59.80  .45512 1.4367 173.8 21.2 2.64 135
2019 01 12 03  07 58 49.263   +22 12 54.36  .45506 1.4367 173.8 21.2 2.70 136
2019 01 12 04  07 58 43.766   +22 11 48.88  .45500 1.4367 173.9 21.2 2.76 137
2019 01 12 05  07 58 38.267   +22 10 43.38  .45494 1.4367 174.0 21.2 2.82 138
2019 01 12 06  07 58 32.767   +22 09 37.85  .45489 1.4367 174.0 21.2 2.89 139
2019 01 12 07  07 58 27.266   +22 08 32.29  .45483 1.4366 174.1 21.2 2.95 140
2019 01 12 08  07 58 21.764   +22 07 26.70  .45478 1.4366 174.1 21.2 3.02 141
2019 01 12 09  07 58 16.261   +22 06 21.08  .45472 1.4366 174.2 21.2 3.09 142
2019 01 12 10  07 58 10.757   +22 05 15.44  .45467 1.4366 174.3 21.2 3.16 143
2019 01 12 11  07 58 05.252   +22 04 09.76  .45461 1.4366 174.3 21.2 3.23 145
2019 01 12 12  07 57 59.746   +22 03 04.06  .45456 1.4365 174.4 21.2 3.30 146
2019 01 12 13  07 57 54.239   +22 01 58.33  .45451 1.4365 174.5 21.2 3.38 147
2019 01 12 14  07 57 48.731   +22 00 52.58  .45445 1.4365 174.5 21.2 3.46 148
2019 01 12 15  07 57 43.223   +21 59 46.79  .45440 1.4365 174.6 21.2 3.54 149
2019 01 12 16  07 57 37.713   +21 58 40.98  .45435 1.4365 174.7 21.2 3.62 149
2019 01 12 17  07 57 32.202   +21 57 35.14  .45429 1.4365 174.7 21.2 3.70 150
2019 01 12 18  07 57 26.691   +21 56 29.27  .45424 1.4364 174.8 21.2 3.79 151
2019 01 12 19  07 57 21.179   +21 55 23.38  .45419 1.4364 174.8 21.2 3.88 152
2019 01 12 20  07 57 15.666   +21 54 17.46  .45414 1.4364 174.9 21.2 3.96 153
2019 01 12 21  07 57 10.152   +21 53 11.51  .45409 1.4364 175.0 21.2 4.06 154
2019 01 12 22  07 57 04.637   +21 52 05.54  .45404 1.4364 175.0 21.2 4.15 155
2019 01 12 23  07 56 59.122   +21 50 59.53  .45399 1.4363 175.1 21.2 4.25 156
2019 01 13 00  07 56 53.606   +21 49 53.51  .45394 1.4363 175.2 21.2 4.34 157
2019 01 13 01  07 56 48.089   +21 48 47.45  .45389 1.4363 175.2 21.2 4.44 158
2019 01 13 02  07 56 42.572   +21 47 41.37  .45384 1.4363 175.3 21.2 4.54 158
2019 01 13 03  07 56 37.054   +21 46 35.27  .45380 1.4363 175.3 21.2 4.65 159
2019 01 13 04  07 56 31.535   +21 45 29.13  .45375 1.4362 175.4 21.1 4.75 160
2019 01 13 05  07 56 26.016   +21 44 22.98  .45370 1.4362 175.5 21.1 4.86 161
2019 01 13 06  07 56 20.496   +21 43 16.79  .45365 1.4362 175.5 21.1 4.97 162
2019 01 13 07  07 56 14.976   +21 42 10.58  .45361 1.4362 175.6 21.1 5.09 162
2019 01 13 08  07 56 09.455   +21 41 04.35  .45356 1.4362 175.7 21.1 5.20 163
2019 01 13 09  07 56 03.934   +21 39 58.09  .45352 1.4362 175.7 21.1 5.32 164
2019 01 13 10  07 55 58.412   +21 38 51.81  .45347 1.4361 175.8 21.1 5.44 164
2019 01 13 11  07 55 52.889   +21 37 45.50  .45342 1.4361 175.9 21.1 5.56 165
2019 01 13 12  07 55 47.366   +21 36 39.16  .45338 1.4361 175.9 21.1 5.68 166
2019 01 13 13  07 55 41.843   +21 35 32.81  .45334 1.4361 176.0 21.1 5.81 167
2019 01 13 14  07 55 36.320   +21 34 26.42  .45329 1.4361 176.0 21.1 5.94 167
2019 01 13 15  07 55 30.795   +21 33 20.02  .45325 1.4360 176.1 21.1 6.07 168
2019 01 13 16  07 55 25.271   +21 32 13.58  .45321 1.4360 176.2 21.1 6.20 169
2019 01 13 17  07 55 19.746   +21 31 07.13  .45316 1.4360 176.2 21.1 6.34 169
2019 01 13 18  07 55 14.221   +21 30 00.65  .45312 1.4360 176.3 21.1 6.48 170
2019 01 13 19  07 55 08.696   +21 28 54.15  .45308 1.4360 176.4 21.1 6.62 171
2019 01 13 20  07 55 03.170   +21 27 47.62  .45304 1.4360 176.4 21.1 6.76 171
2019 01 13 21  07 54 57.644   +21 26 41.07  .45300 1.4359 176.5 21.1 6.90 172
2019 01 13 22  07 54 52.118   +21 25 34.50  .45296 1.4359 176.5 21.1 7.05 172
2019 01 13 23  07 54 46.592   +21 24 27.90  .45292 1.4359 176.6 21.1 7.20 173
2019 01 14 00  07 54 41.065   +21 23 21.28  .45288 1.4359 176.7 21.1 7.36 173